SCP
0 0 0 0 -0 -0 -0 -0 -0 -0 -0 -0 -0 0 0 0 0 0 0 0 0 0 0 0 0 0 0 0 0 0 0 0 0 0 0 0 0 0 0 0 0 0 0 -0 -0 0 0 0 0
0 0 0 0 -0 -0 -0 -0 -0 -0 -0 -0 -0 -0 0 0 0 0 0 0 0 0 0 0 0 0 0 0 0 0 0 0 0 0 0 0 0 0 0 0 0 0 0 0 0 0 0 0 0
0 0 0 0 -0 -0 -0 -0 -0 -0 -0 -0 -0 -0 -0 -0 -0 0 0 0 0 0 0 0 0 0 0 0 0 0 0 0 0 0 0 0 0 0 0 0 0 0 0 0 0 0 0 0 0
0 0 0 -0 -0 -0 -0 -0 -0 -0 -0 -0 -0 -0 -0 -0 0 0 0 0 0 0 0 0 0 0 0 0 0 0 0 0 0 0 0 0 0 0 0 0 0 0 0 0 0 0 0 0 0
0 0 0 0 0 -0 -0 -0 -0 -0 -0 -0 -0 -0 -0 -0 0 0 0 0 0 0 0 0 0 0 0 0 0 0 0 0 0 0 0 0 0 0 0 0 0 0 0 0 0 0 0 0 0
0 0 0 0 0 -0 -0 -0 -0 -0 -0 -0 -0 -0 -0 -0 0 0 0 0 0 0 0 0 0 0 0 0 0 0 0 0 0 0 0 0 0 0 0 0 0 0 0 0 0 0 0 0 0
0 0 0 0 0 -0 -0 -0 -0 -0 -0 -0 -0 0 -0 -0 0 0 0 0 0 0 0 0 0 0 0 0 0 0 0 0 0 0 0 0 0 0 0 0 0 0 0 0 0 0 0 0 0
0 0 0 0 0 -0 -0 -0 -0 -0 -0 -0 -0 0 0 0 0 0 0 0 0 0 0 0 0 0 0 0 0 0 0 0 0 0 0 0 0 0 0 0 0 0 0 0 0 0 0 0 0
0 0 0 0 0 -0 -0 -0 0 0 -0 -0 -0 0 0 0 0 0 0 0 0 0 1 1 1 1 1 1 1 1 1 1 1 1 0 0 0 0 0 0 0 0 0 0 0 0 0 0 0
0 0 0 0 0 0 -0 -0 0 0 0 0 0 0 0 0 0 0 0 0 0 0 1 1 1 1 1 1 1 1 1 1 1 1 1 1 1 0 0 0 0 0 0 0 0 0 0 0 0
0 0 0 0 0 0 -0 0 0 0 0 0 0 0 0 1 1 1 1 0 0 0 1 1 1 1 1 1 1 1 1 1 1 1 1 1 1 1 1 1 1 1 1 0 0 0 0 0 1
0 0 0 0 0 0 0 0 0 0 0 0 0 1 1 1 1 1 1 1 0 0 0 1 1 1 1 1 1 1 1 1 1 1 1 1 1 1 1 1 1 1 1 1 1 1 1 1 1
0 0 0 0 0 0 0 0 0 0 0 0 1 1 1 1 1 1 1 1 1 0 0 0 1 1 1 1 1 1 1 1 1 1 1 2 2 1 1 1 1 1 1 1 1 1 1 1 1
0 0 0 0 0 0 0 0 0 0 0 1 1 1 1 1 1 1 1 1 1 1 1 1 1 1 1 1 1 1 1 1 1 1 2 2 2 2 1 1 1 1 1 1 1 1 1 1 1
0 0 0 0 0 0 0 0 0 1 1 2 2 2 1 1 1 1 1 1 1 1 1 1 1 1 1 1 1 1 1 1 1 1 1 1 1 2 1 1 1 1 1 1 1 1 1 1 1
0 0 0 0 0 0 0 0 1 1 2 3 3 2 2 1 1 1 1 1 2 2 1 1 1 1 1 1 1 1 1 1 1 1 1 1 1 1 1 1 1 1 1 1 1 1 1 1 1
0 0 0 0 0 0 0 1 1 2 3 3 3 2 2 1 1 1 1 1 2 2 1 1 1 1 1 1 1 1 1 1 1 1 1 1 1 1 1 1 1 1 1 1 1 1 1 1 1
0 0 0 0 0 0 0 1 2 2 3 3 3 2 1 1 1 1 1 1 1 1 1 1 1 1 1 1 1 1 1 1 1 1 1 1 1 1 1 1 1 1 1 1 1 1 1 1 1
0 0 0 0 0 0 1 1 2 2 2 2 2 2 1 1 1 1 0 0 0 0 1 1 1 1 1 1 1 0 0 0 0 0 0 1 1 0 0 1 1 1 1 1 1 1 1 1 1
0 0 0 0 0 0 0 1 1 1 1 2 2 2 1 1 1 0 -0 -0 -0 -0 0 0 1 1 1 0 0 0 0 0 0 0 0 0 0 0 0 0 0 0 1 1 1 1 1 1 1
0 0 0 0 0 0 0 0 0 1 1 1 2 2 1 1 0 -0 -0 -0 -0 -0 -0 0 0 0 0 0 0 0 0 0 0 0 0 0 0 0 0 0 0 0 0 0 1 1 1 1 1
0 0 0 0 0 0 0 0 0 1 1 1 1 1 1 0 -0 -0 -0 -0 -0 -0 -0 0 0 0 0 0 0 0 0 0 0 0 0 0 0 0 0 0 0 0 0 0 0 1 1 1 1
0 0 0 0 0 0 0 0 0 0 1 1 1 1 1 0 -0 -0 -0 -0 -0 -0 0 0 0 0 0 0 0 0 0 0 0 0 0 0 0 0 0 0 0 0 0 0 0 1 1 1 1
0 0 0 0 0 0 0 0 0 0 0 0 0 0 0 0 -0 -0 -0 -0 -0 0 0 0 0 0 0 0 0 0 0 0 0 0 0 0 0 0 0 0 0 0 0 0 0 0 1 1 1
0 0 0 0 0 0 0 0 0 0 0 0 0 0 0 0 0 -0 -0 -0 0 0 0 0 0 0 0 0 0 0 0 0 0 0 0 0 0 0 0 0 0 0 0 0 0 0 0 0 0
0 0 0 0 0 0 0 0 0 0 0 0 0 0 0 0 0 0 -0 -0 0 0 0 0 0 0 0 0 0 0 0 0 0 0 0 0 0 0 0 0 0 0 0 0 0 0 0 0 0
0 0 0 0 0 0 0 0 0 0 0 0 0 0 0 0 0 0 0 -0 -0 -0 0 0 0 0 0 0 0 0 0 0 0 0 0 0 0 0 0 0 0 0 0 0 0 0 0 0 0
0 0 0 0 0 0 0 0 0 0 0 0 0 0 0 0 0 0 0 0 0 0 0 0 0 0 0 0 0 0 0 0 0 0 0 0 0 0 0 0 0 0 0 0 0 0 0 0 0
0 0 0 0 0 0 0 0 0 0 0 0 0 0 0 0 0 0 0 0 0 0 0 0 0 0 0 0 0 0 0 0 0 0 0 0 0 0 0 0 0 0 0 0 0 0 0 0 0
0 0 0 0 0 0 0 0 0 0 0 0 0 0 0 0 0 0 0 0 0 0 0 0 0 0 0 0 0 0 0 0 0 0 0 0 0 0 0 0 0 0 0 0 0 0 0 0 0
Wind_Speed
3 4 3 2 3 4 2 3 2 5 3 2 2 5 6 4 3 2 2 7 13 13 12 15 18 18 17 16 15 15 15 15 14 13 12 12 11 10 9 9 8 8 7 7 7 7 7 6 6
2 4 2 2 4 3 3 3 3 3 2 3 4 5 5 2 2 4 4 7 14 13 10 10 17 16 16 16 15 15 16 15 15 14 12 11 10 9 8 8 8 7 6 5 5 6 6 6 5
3 2 3 3 4 2 2 2 2 1 2 1 4 4 3 2 3 6 4 11 11 10 9 11 18 16 16 16 16 16 16 15 15 14 13 12 10 9 8 7 7 6 6 5 4 4 5 5 5
2 3 4 4 1 4 4 2 2 2 0 3 4 4 3 1 6 6 11 13 13 10 8 12 19 17 16 16 15 15 15 15 14 13 12 11 10 9 8 7 7 6 6 5 5 5 5 6 6
3 4 5 4 4 4 4 2 1 2 1 1 4 4 2 3 7 11 12 13 14 10 8 10 18 17 15 15 14 14 14 13 12 11 10 10 9 9 8 8 8 8 7 7 7 8 8 8 8
4 5 5 3 6 6 3 3 1 1 2 1 4 5 2 3 8 11 11 10 10 9 8 8 17 17 16 15 14 14 13 12 11 11 10 9 9 9 8 9 9 9 9 9 9 10 10 10 9
4 4 1 2 5 5 2 2 2 1 0 2 3 6 2 4 5 8 8 8 7 7 6 5 8 10 14 14 14 13 12 11 11 10 10 10 10 10 11 11 11 11 11 11 12 12 12 12 11
4 4 0 2 3 5 3 1 2 2 0 3 2 5 4 6 9 9 9 8 8 6 5 4 5 5 5 7 12 12 11 11 11 11 11 11 11 11 11 11 12 13 13 14 14 14 14 13 12
4 4 2 4 3 3 3 1 2 3 2 2 2 1 5 16 14 12 10 8 7 8 6 5 5 5 5 5 8 11 12 12 11 10 13 12 6 6 7 10 13 14 14 15 15 15 15 14 13
4 3 6 5 4 2 3 4 4 4 2 3 0 5 14 18 14 13 13 12 10 10 8 6 7 7 6 6 5 5 5 6 6 5 6 5 4 5 7 8 14 15 16 17 17 16 16 13 7
3 6 5 5 5 4 3 3 4 6 6 9 7 12 17 17 12 11 11 11 11 10 9 8 7 7 7 5 4 3 3 4 5 6 6 4 4 4 6 4 7 9 11 9 10 11 8 7 6
3 7 6 7 4 2 3 4 5 7 7 3 10 17 17 17 14 11 11 10 9 9 10 8 7 6 6 4 3 3 3 3 4 5 6 5 4 5 5 5 6 6 5 6 7 5 7 9 9
4 6 5 7 8 4 2 4 5 4 1 7 14 14 13 12 9 8 9 9 9 10 9 8 8 9 7 6 4 4 5 5 5 4 5 7 7 7 7 6 6 7 6 7 8 8 9 10 10
4 5 7 8 5 4 4 3 3 2 5 9 12 10 9 10 10 8 7 7 7 8 8 8 9 9 7 7 6 5 4 4 4 5 7 9 8 7 7 8 7 7 8 8 8 10 9 8 8
3 5 7 4 3 4 4 2 4 3 7 10 8 7 7 5 6 6 7 7 7 7 6 6 6 5 5 6 6 4 4 4 5 6 7 8 8 8 8 7 7 8 8 9 8 10 8 7 7
2 3 4 7 5 4 3 7 2 6 10 10 8 7 7 6 5 4 5 6 6 6 6 7 7 7 7 7 6 5 5 5 6 6 6 8 9 8 7 6 8 8 7 7 8 8 7 7 8
5 3 4 8 5 3 4 5 1 5 8 9 8 7 7 6 5 5 4 5 5 6 6 6 6 6 7 7 5 5 4 5 4 4 4 5 6 7 6 6 7 7 6 6 7 7 7 8 8
2 2 3 6 7 5 2 2 5 5 7 8 8 6 4 5 3 2 3 4 4 4 4 4 4 3 3 3 3 3 3 4 3 3 4 4 4 5 4 5 6 6 5 6 6 8 8 6 6
1 1 3 4 4 6 6 5 4 3 5 7 6 5 4 3 1 0 0 1 2 2 3 3 3 3 3 2 2 2 2 2 1 2 3 4 4 4 4 4 5 5 5 6 7 7 8 7 4
2 1 2 3 5 4 5 4 3 1 2 5 8 8 7 4 2 3 4 3 3 3 2 3 3 3 3 2 2 2 2 1 2 2 3 3 4 5 5 5 6 6 5 7 7 6 4 4 5
1 2 2 2 3 4 4 3 3 2 1 3 5 6 5 6 8 8 7 6 5 5 5 4 5 4 3 3 1 1 1 1 2 2 2 3 4 5 5 6 6 7 7 7 8 7 8 6 6
2 3 2 1 1 2 1 2 4 3 3 6 7 6 7 8 9 8 8 7 8 7 5 5 5 4 3 3 3 3 2 2 2 1 3 5 6 7 7 8 8 8 7 9 9 8 8 8 7
3 3 4 2 1 1 3 2 7 2 4 8 8 8 11 12 11 10 9 8 6 4 4 4 4 4 3 3 4 4 3 3 1 1 3 5 6 7 8 9 9 9 8 9 10 9 9 8 8
3 6 6 5 5 1 1 2 6 5 9 7 8 9 12 12 9 8 6 4 4 3 4 3 4 5 4 5 5 6 6 5 3 2 3 4 4 5 7 8 8 9 8 9 8 8 10 9 9
6 7 6 8 6 4 4 2 10 9 8 9 11 14 13 8 6 7 7 6 6 6 5 4 5 6 5 5 5 6 6 5 4 3 3 4 4 5 7 7 7 7 8 8 8 7 8 8 9
2 8 6 3 4 6 4 5 9 6 6 6 8 7 5 4 5 7 8 7 7 8 6 5 6 7 5 5 5 4 5 3 3 4 4 4 4 6 8 9 8 8 8 7 6 5 6 6 7
4 3 5 6 2 2 6 7 10 5 5 3 2 2 4 6 7 7 8 8 7 7 6 6 6 6 5 5 5 5 5 5 5 5 4 4 4 5 7 8 9 9 7 6 5 4 5 5 6
2 7 5 5 3 4 6 5 5 11 13 9 8 9 9 9 10 10 9 9 8 6 6 4 4 4 3 4 5 5 6 6 6 5 5 5 4 4 6 8 9 9 7 6 4 4 4 4 3
2 3 5 4 3 4 4 6 3 8 9 5 9 10 9 10 11 12 13 12 11 10 9 8 7 6 5 5 6 6 7 7 6 5 6 4 4 4 5 7 8 8 8 7 5 4 3 1 2
1 3 6 2 4 4 4 6 5 6 9 10 10 9 9 9 10 11 13 14 14 13 11 10 9 8 7 6 6 7 7 6 7 7 6 4 4 4 4 5 6 7 8 7 6 5 4 4 5
Wind_Direction
176 164 141 122 73 47 3 304 278 313 17 11 81 106 119 126 178 202 101 131 134 146 158 163 162 160 157 156 155 151 147 144 142 141 140 139 142 144 143 140 138 136 132 127 126 125 122 122 123
187 156 128 98 78 47 319 308 308 298 149 160 64 67 68 63 49 111 131 147 145 149 153 161 164 162 160 160 160 158 155 152 151 150 149 148 147 148 149 149 149 149 147 145 146 146 143 144 145
207 164 114 84 86 159 286 307 269 310 177 149 82 70 94 165 150 161 162 148 141 146 152 166 167 168 167 166 167 165 162 159 158 158 159 159 159 162 163 164 165 166 168 171 176 175 172 172 176
116 57 52 61 351 217 217 257 241 151 8 68 104 82 65 90 157 153 141 146 145 149 155 171 171 174 175 173 174 171 168 165 165 165 165 167 171 177 180 180 185 188 190 198 207 213 213 210 210
62 70 48 16 299 270 229 219 236 171 153 50 110 108 80 27 106 129 141 150 153 154 158 173 173 177 179 179 180 181 178 174 173 174 176 179 185 194 198 202 204 206 210 216 224 230 234 237 238
47 57 61 334 301 293 264 166 135 150 149 164 133 117 118 105 127 143 146 149 151 152 156 171 177 180 182 183 185 187 185 183 183 185 189 194 199 204 207 213 220 221 220 224 232 238 240 243 247
93 85 126 271 293 310 289 137 126 114 146 222 150 123 134 139 139 134 130 125 128 134 144 164 175 185 187 188 191 193 191 191 194 197 201 207 214 220 220 217 223 228 231 236 240 244 247 248 246
116 97 55 285 281 313 312 73 97 99 61 358 83 142 190 171 136 124 117 118 126 124 130 146 154 171 182 191 199 202 204 201 203 208 214 220 225 230 230 225 228 234 239 244 247 247 251 251 248
91 80 230 231 214 305 322 313 106 80 77 325 325 196 166 132 131 127 125 129 144 151 143 144 148 154 169 183 204 206 210 211 212 217 225 227 229 237 242 240 237 242 248 251 253 252 252 252 252
99 156 229 217 199 200 276 249 175 135 168 237 205 78 125 134 143 147 151 158 167 174 169 160 163 163 168 190 194 200 202 205 209 209 225 225 219 232 242 247 247 247 250 254 255 254 255 253 246
177 213 245 251 225 205 234 234 164 158 211 216 179 142 143 147 156 161 164 170 177 180 183 182 180 178 180 187 181 188 192 197 207 212 215 218 224 239 247 245 253 254 256 256 258 255 249 243 237
204 255 254 277 288 211 194 173 175 205 235 202 144 148 152 162 168 172 172 176 176 179 195 192 188 188 195 200 206 205 203 208 215 215 210 212 224 234 239 242 241 241 243 246 250 248 245 243 242
228 264 268 261 283 259 207 190 199 224 293 120 132 146 158 164 167 178 181 180 179 186 195 195 195 201 199 202 213 216 219 224 228 225 220 221 228 235 235 239 240 243 245 244 242 243 242 243 243
253 265 279 277 258 234 188 183 178 195 132 126 136 144 147 160 166 167 173 185 187 193 199 198 202 208 207 214 220 225 229 237 239 237 235 232 233 236 234 237 238 241 243 246 246 244 241 238 236
286 301 313 303 293 253 176 203 212 160 133 123 126 123 122 124 137 152 171 182 196 202 205 208 210 206 215 231 236 230 226 227 233 240 243 242 241 244 245 243 244 244 242 246 250 249 242 241 239
19 22 334 308 329 300 181 242 229 133 132 124 118 104 90 75 91 118 151 162 181 188 195 209 212 201 209 218 224 226 228 233 243 246 246 248 248 248 252 254 256 254 247 243 244 245 240 239 239
20 13 315 305 324 326 173 230 74 108 121 113 100 94 102 105 98 97 115 140 156 172 180 188 198 205 211 215 221 229 234 238 248 255 253 255 259 255 246 251 260 263 257 248 245 241 233 232 233
294 327 309 304 323 23 74 76 73 80 110 106 99 103 117 120 105 88 101 124 139 154 166 175 183 185 176 193 210 229 246 248 241 240 241 247 252 256 250 252 260 265 262 257 247 247 240 233 232
254 242 274 289 328 55 58 80 55 80 114 119 122 136 165 150 116 103 178 155 158 169 168 171 171 174 160 160 180 209 244 258 262 258 266 282 293 296 286 275 273 265 256 253 249 245 243 238 212
203 195 301 305 347 75 78 52 350 310 187 155 160 176 181 171 188 231 237 234 225 220 201 192 199 201 193 177 186 193 213 256 272 290 309 324 327 315 307 292 285 277 267 260 253 242 240 232 194
127 182 243 291 10 50 86 12 323 312 72 155 183 191 190 191 207 223 228 230 232 235 227 219 218 219 219 202 177 146 34 347 336 335 331 331 320 307 298 291 286 281 272 265 252 239 235 240 219
273 246 240 262 48 296 86 228 268 288 228 203 199 200 209 220 223 225 225 227 226 231 232 232 229 227 227 200 198 196 199 234 247 290 303 311 314 312 308 300 294 288 280 272 262 247 234 231 229
235 53 53 26 175 12 16 173 278 300 249 230 212 207 213 220 220 223 226 230 237 240 237 239 249 260 253 226 214 203 205 208 215 246 285 297 303 305 305 303 299 292 284 278 270 258 244 231 228
84 62 48 44 65 55 308 175 274 230 220 230 227 225 225 228 230 240 248 255 266 265 255 243 245 259 251 231 213 200 202 197 208 251 284 294 298 300 297 305 303 297 290 284 278 269 257 244 236
68 68 19 0 8 270 282 238 252 246 226 213 215 225 228 234 247 262 272 275 274 270 256 231 227 249 247 227 211 201 195 187 200 234 263 287 303 308 308 312 308 302 294 287 281 274 265 250 240
140 130 151 213 247 286 316 245 255 258 263 238 232 236 247 279 292 290 285 282 275 266 255 227 222 243 245 227 214 194 179 179 206 230 244 265 285 296 301 308 304 299 298 293 283 274 267 253 244
138 154 155 134 186 278 289 288 303 330 322 312 299 357 6 1 345 320 309 298 284 274 260 231 226 239 238 227 214 197 193 199 218 235 245 256 270 289 302 310 312 309 304 300 293 279 273 257 245
116 132 97 118 164 264 292 290 289 323 323 344 34 45 36 24 14 4 355 346 339 328 318 313 296 284 271 237 221 212 209 214 223 234 251 261 273 285 310 320 323 322 322 320 311 294 282 263 252
34 79 96 107 158 175 255 273 332 314 322 24 57 51 38 29 21 17 14 10 8 9 6 357 347 331 306 266 239 226 221 222 227 235 248 262 272 293 314 323 326 330 339 343 344 338 336 353 359
234 140 137 122 264 196 212 266 7 25 45 61 52 39 29 26 22 20 16 14 14 10 2 355 345 328 302 278 254 240 233 227 232 239 244 249 267 285 305 320 327 333 345 356 4 14 28 38 36